This is the latest recevied weather packets stored in our database for station/object K4AGR-13. If no packets are shown the sender has not sent any weather packets the latest 10 day(s).
| Time | Temp. | Humidity | Pressure | Rain* | Wind** | Luminosity | Snow |
|---|---|---|---|---|---|---|---|
| 1777817274 | 18.33° C | 47% | 1020.5 hPa | 0 mm | - | 605 W/m² | - |
| 1777816971 | 18.33° C | 45% | 1020.5 hPa | 0 mm | - | 587 W/m² | - |
| 1777816668 | 17.78° C | 49% | 1020.5 hPa | 0 mm | - | 566 W/m² | - |
| 1777816364 | 17.78° C | 50% | 1020.5 hPa | 0 mm | - | 547 W/m² | - |
| 1777816063 | 17.78° C | 54% | 1020.3 hPa | 0 mm | - | 525 W/m² | - |
| 1777815760 | 17.22° C | 51% | 1020.6 hPa | 0 mm | - | 506 W/m² | - |
| 1777815457 | 17.22° C | 52% | 1020.4 hPa | 0 mm | - | 484 W/m² | - |
| 1777815154 | 17.22° C | 55% | 1020.4 hPa | 0 mm | - | 462 W/m² | - |
| 1777814851 | 16.67° C | 54% | 1020.4 hPa | 0 mm | - | 440 W/m² | - |
| 1777814546 | 16.67° C | 57% | 1020.5 hPa | 0 mm | - | 418 W/m² | - |
| 1777814244 | 16.11° C | 54% | 1020.6 hPa | 0 mm | - | 396 W/m² | - |
| 1777813941 | 16.11° C | 58% | 1020.6 hPa | 0 mm | - | 374 W/m² | - |
| 1777813639 | 16.11° C | 56% | 1020.4 hPa | 0 mm | - | 352 W/m² | - |
| 1777813336 | 15.56° C | 60% | 1020.7 hPa | 0 mm | - | 328 W/m² | - |
| 1777813033 | 15.56° C | 59% | 1020.7 hPa | 0 mm | - | 305 W/m² | - |
| 1777812731 | 15° C | 64% | 1020.4 hPa | 0 mm | - | 282 W/m² | - |
| 1777812427 | 15° C | 63% | 1020.4 hPa | 0 mm | - | 260 W/m² | - |
| 1777812125 | 14.44° C | 64% | 1020.4 hPa | 0 mm | - | 239 W/m² | - |
| 1777811823 | 13.89° C | 68% | 1020.4 hPa | 0 mm | - | 218 W/m² | - |
| 1777811521 | 13.89° C | 70% | 1020.5 hPa | 0 mm | - | 199 W/m² | - |
| 1777811216 | 13.33° C | 69% | 1020.5 hPa | 0 mm | - | 180 W/m² | - |
| 1777810914 | 13.33° C | 70% | 1020.3 hPa | 0 mm | - | 161 W/m² | - |
| 1777810610 | 12.78° C | 73% | 1020.4 hPa | 0 mm | - | 143 W/m² | - |
| 1777810308 | 12.78° C | 72% | 1020.3 hPa | 0 mm | - | 79 W/m² | - |
| 1777810003 | 12.22° C | 74% | 1020.2 hPa | 0 mm | - | 47 W/m² | - |
* Rain latest hour (hover to see other rain measurements)
** Current wind speed in m/s (hover to see current wind gust speed)